GLOBALSTAR M073

Last updated on Sun Jun 21 2026 00:03:18 GMT+0000 (Coordinated Universal Time)

1 37193U 10054F 26171.39420991 -.00000089 00000+0 79664-4 0 9990 2 37193 52.0075 54.5304 0000960 55.0478 116.6998 12.62266576724331
UTC large
Height (km)
Speed (km/s)
/
Latitude / Longitude
Inclination (degrees)
Orbital Period (minutes)
Azimuth
Elevation
Range (km)
Doppler Factor

Next 0 passes for location: London (51.5072 / 0.1276)

No passes found over London.
GLOBALSTAR M073